Home   Weather   Ramat Gan   Past weeks

Flag for Israel Past Weather in Ramat Gan, Israel — Yesterday and Last 2 Weeks

Now
77 °F

Passing clouds.


Feels Like: 78 °F
Forecast: 75 / 88 °F
Wind: 3 mph from North

Location: Dov Airport

Current Time: Jun 25, 2017 at 11:56:46 pm

Latest Report: Jun 25, 2017 at 10:50 pm


Visibility: N/A

Pressure: 29.80 "Hg

Humidity: 83%

Dew Point: 72 °F

Location of Ramat GanLocation

Past Weather in Ramat Gan — Graph

°F

Ramat Gan Temperature Yesterday

Maximum temperature yesterday: 82 °F (at 11:50 am)
Minimum temperature yesterday: 73 °F (at 6:00 am)
Average temperature yesterday: 80 °F

High & Low Weather Summary for the Past Weeks

 TemperatureHumidityPressure
High84 °F (Jun 19, 12:50 pm)89% (Jun 18, 4:50 am)29.92 "Hg (Jun 18, 4:50 am)
Low72 °F (Jun 11, 5:50 am)54% (Jun 20, 4:50 pm)29.77 "Hg (Jun 11, 5:50 pm)
Average78 °F69%29.84 "Hg
* Reported Jun 10 9:50 pm — Jun 25 9:50 pm, Ramat Gan. Weather by CustomWeather, © 2017

Note: Actual official high and low records may vary slightly from our data, if they occured in-between our weather recording intervals... More about our weather records

Advertising

Ramat Gan Weather History for the Previous 24 Hours

Scroll right to see more
 ConditionsComfort  
Time TempWeatherWind HumidityBarometerVisibility
9:50 pm
Sun, Jun 25
79 °FPassing clouds.6 mph84%29.80 "HgN/A
8:50 pm79 °FPassing clouds.5 mph84%29.77 "HgN/A
7:50 pm79 °FPassing clouds.7 mph84%29.77 "HgN/A
6:50 pm81 °FPartly sunny.10 mph79%29.77 "HgN/A
5:50 pm82 °FScattered clouds.12 mph74%29.77 "HgN/A
4:50 pm82 °FPassing clouds.10 mph74%29.77 "HgN/A
3:50 pm82 °FSunny.10 mph74%29.77 "Hg10 mi
2:50 pm84 °FSunny.8 mph66%29.80 "Hg10 mi
1:50 pm82 °FSunny.10 mph70%29.80 "Hg10 mi
12:50 pm82 °FSunny.13 mph70%29.83 "Hg10 mi
11:50 am82 °FSunny.13 mph70%29.83 "Hg10 mi
10:50 am81 °FPassing clouds.12 mph70%29.83 "HgN/A
9:50 am81 °FPassing clouds.12 mph70%29.83 "HgN/A
8:50 am81 °FScattered clouds.7 mph70%29.83 "HgN/A
7:50 am77 °FPassing clouds.6 mph79%29.83 "HgN/A
6:50 am75 °FPassing clouds.5 mph83%29.83 "HgN/A
5:50 am73 °FPassing clouds.5 mph89%29.83 "Hg6 mi
5:30 am73 °FPassing clouds.3 mph89%29.83 "HgN/A
Weather by CustomWeather, © 2017

See weather overviewHow to use our weather pages